TIANTONG-1 1

Last updated on Jan. 29, 2020, 4:37 a.m. UTC

1 41725U 16048A   20028.87855145 -.00000315  00000-0  00000-0 0  9993
2 41725   3.1842 331.8743 0005775  16.3759 196.9921  1.00271376 12886
UTC
Height (km)
Latitude
Longitude
Inclination
Orbital Period
UTC large
Height (km)
Speed (km/s)
/
Latitude / Longitude
Inclination (degrees)
Orbital Period (minutes)
Azimuth
Elevation
Range (km)
Doppler Factor
iOS Compass Heading
iOS Angle

Next 30 passes for location: Hong Kong

Rise time Rise Azimuth (degrees) Set time Set Azimuth (degrees) Duration Max altitude (degrees)

No matching passes for this satellites